Notices

What's New in latest Release from April 7th, 2021:

- Updated Glossary, including Speed of Maximum Gust, and Total Hourly Precipitation

- Updated national and regional climate services offices contacts and prices information

- Addition of station inventory lists for 1981-2010, 1971-2000, and 1961-1990 Normals.

If you haven't already, please take our survey and provide feedback about our website: https://eccc.sondage-survey.ca/f/LanguageSelection.aspx?s=442ca660-fcf1-47c0-95a9-59707d6fd709

Hourly Data Report for April 19, 2003

TORONTO CITY
ONTARIO

43°40'00.000" N
79°24'00.000" W
112.50 m
6158355
71508
XTO

Download Data

Hourly Data (April 2003)
Hourly Data Report for April 19, 2003
TIME
LST
Temp Definition
°C
Dew Point Definition
°C
Rel Hum Definition
%
Precip. Amount Definition
mm

Wind Dir Definition
10's deg

Wind Spd Definition
km/h
Visibility Definition
km
Stn Press Definition
kPa
Hmdx Definition


Wind Chill Definition


Weather Definition


00:00 10.2 5.4 72   LegendMM LegendMM LegendMM 101.05     LegendNANA
01:00 10.6 5.6 71   LegendMM LegendMM LegendMM 101.03     LegendNANA
02:00 9.4 5.1 74   LegendMM LegendMM LegendMM 101.07     LegendNANA
03:00 9.5 5.4 76   LegendMM LegendMM LegendMM 101.08     LegendNANA
04:00 9.4 5.5 77   LegendMM LegendMM LegendMM 101.11     LegendNANA
05:00 9.0 5.4 78   LegendMM LegendMM LegendMM 101.13     LegendNANA
06:00 8.4 5.0 79   LegendMM LegendMM LegendMM 101.19     LegendNANA
07:00 8.6 5.1 79   LegendMM LegendMM LegendMM 101.24     LegendNANA
08:00 9.3 5.7 78   LegendMM LegendMM LegendMM 101.25     LegendNANA
09:00 10.5 6.0 74   LegendMM LegendMM LegendMM 101.19     LegendNANA
10:00 11.8 6.2 69   LegendMM LegendMM LegendMM 101.19     LegendNANA
11:00 12.6 6.6 67   LegendMM LegendMM LegendMM 101.19     LegendNANA
12:00 12.6 6.1 65   LegendMM LegendMM LegendMM 101.15     LegendNANA
13:00 14.1 6.9 62   LegendMM LegendMM LegendMM 101.09     LegendNANA
14:00 14.1 7.0 62   LegendMM LegendMM LegendMM 101.02     LegendNANA
15:00 14.3 7.1 62   LegendMM LegendMM LegendMM 100.95     LegendNANA
16:00 13.3 6.4 63   LegendMM LegendMM LegendMM 100.88     LegendNANA
17:00 11.8 6.1 68   LegendMM LegendMM LegendMM 100.88     LegendNANA
18:00 11.4 6.5 72   LegendMM LegendMM LegendMM 100.93     LegendNANA
19:00 10.8 6.7 76   LegendMM LegendMM LegendMM 100.91     LegendNANA
20:00 11.0 7.3 78   LegendMM LegendMM LegendMM 100.89     LegendNANA
21:00 11.3 7.6 78   LegendMM LegendMM LegendMM 100.90     LegendNANA
22:00 12.6 7.9 73   LegendMM LegendMM LegendMM 100.86     LegendNANA
23:00 12.1 7.6 74   LegendMM LegendMM LegendMM 100.77     LegendNANA

Notes on Data Quality.

Legend

  • E = Estimated
  • M = Missing
  • NA = Not Available*
  • [empty] = Indicates an unobserved value
Date modified: